Tracking 28790 objects as of 19-Apr-2024
HD Live streaming from Space Station
objects crossing your sky now

STARLINK-2681

Track STARLINK-2681 now!
10-day predictions
STARLINK-2681 is classified as:


NORAD ID: 48465
Int'l Code: 2021-040AP
Perigee: 552.9 km
Apogee: 555.8 km
Inclination: 53.1 °
Period: 95.6 minutes
Semi major axis: 6925 km
RCS: Unknown
Launch date: May 9, 2021
Source: United States (US)
Launch site: AIR FORCE EASTERN TEST RANGE (AFETR)
Your satellite tracking list
Your tracking list is empty




NASA's NSSDC Master Catalog

Two Line Element Set (TLE):
1 48465U 21040AP  24109.04240916  .00001242  00000-0  10230-3 0  9994
2 48465  53.0532  52.0484 0002106  63.4035 296.7170 15.06390537162404
Source of the keplerian elements: AFSPC